Location: Harwich
(41.7160°N, 69.9939°W)
Time: 10:38:44
(UTC+01:00)

A-11 Canister half - All Passes

Search period start: 24 February 2024 00:00
Search period end: 05 March 2024 00:00
Orbit: 1512 x 1687 km, 47.2° (Epoch: 23 February)

Date Brightness Start Highest point End Pass type
(mag) Time Alt. Az. Time Alt. Az. Time Alt. Az.
24 Feb - 05:42:16 10° S 05:50:20 28° SE 05:58:20 10° ENE visible
24 Feb - 07:44:09 10° SW 07:54:18 76° SSE 08:04:17 10° ENE visible
24 Feb - 09:49:40 10° W 09:59:46 67° N 10:09:35 10° ENE visible
24 Feb - 11:55:45 10° WNW 12:05:46 72° NNE 12:15:24 10° E visible
24 Feb - 14:01:11 10° WNW 14:10:45 60° SW 14:19:58 10° SE daylight
24 Feb - 16:08:27 10° W 16:14:04 17° SW 16:19:37 10° SSW daylight
25 Feb - 05:19:37 10° S 05:27:25 26° SE 05:35:10 10° ENE visible
25 Feb - 07:21:11 10° SW 07:31:19 73° SSE 07:41:16 10° ENE visible
25 Feb - 09:26:35 10° W 09:36:43 68° N 09:46:33 10° ENE visible
25 Feb - 11:32:41 10° WNW 11:42:44 71° NNE 11:52:23 10° E visible
25 Feb - 13:38:07 10° WNW 13:47:48 63° SW 13:57:06 10° SE daylight
25 Feb - 15:45:06 10° W 15:51:13 19° SW 15:57:14 10° SSW daylight
26 Feb - 04:57:00 10° S 05:04:30 24° SE 05:11:59 10° E night (unlit)
26 Feb - 06:58:13 10° SW 07:08:19 70° SE 07:18:17 10° ENE visible
26 Feb - 09:03:30 10° W 09:13:39 69° NNW 09:23:32 10° ENE visible
26 Feb - 11:09:37 10° WNW 11:19:41 70° NNE 11:29:22 10° E visible
26 Feb - 13:15:05 10° WNW 13:24:51 66° SW 13:34:13 10° SE daylight
26 Feb - 15:21:48 10° W 15:28:21 21° SW 15:34:47 10° S daylight
27 Feb - 04:34:26 10° S 04:41:36 22° SE 04:48:45 10° E night (unlit)
27 Feb - 06:35:16 10° SW 06:45:20 67° SE 06:55:16 10° ENE visible
27 Feb - 08:40:25 10° W 08:50:36 70° NNW 09:00:32 10° ENE visible
27 Feb - 10:46:34 10° WNW 10:56:38 69° NNE 11:06:20 10° E visible
27 Feb - 12:52:02 10° WNW 13:01:53 70° SW 13:11:19 10° SE daylight
27 Feb - 14:58:32 10° W 15:05:29 23° SW 15:12:17 10° S daylight
28 Feb - 04:11:56 10° SSE 04:18:43 20° SE 04:25:29 10° E night (unlit)
28 Feb - 06:12:20 10° SW 06:22:20 64° SE 06:32:15 10° ENE visible
28 Feb - 08:17:20 10° W 08:27:33 71° NNW 08:37:31 10° ENE visible
28 Feb - 10:23:30 10° WNW 10:33:35 68° N 10:43:20 10° E visible
28 Feb - 12:29:00 10° WNW 12:38:55 73° SSW 12:48:26 10° SE daylight
28 Feb - 14:35:19 10° WNW 14:42:37 25° SW 14:49:45 10° S daylight
29 Feb - 03:49:28 10° SSE 03:55:49 19° SE 04:02:11 10° E night (unlit)
29 Feb - 05:49:25 10° SW 05:59:21 61° SE 06:09:14 10° ENE visible
29 Feb - 07:54:16 10° W 08:04:29 73° NNW 08:14:30 10° ENE visible
29 Feb - 10:00:25 10° WNW 10:10:31 67° N 10:20:17 10° E visible
29 Feb - 12:05:58 10° WNW 12:15:57 76° SSW 12:25:31 10° SE daylight
29 Feb - 14:12:07 10° WNW 14:19:44 27° SW 14:27:10 10° S daylight
01 Mar - 03:27:03 10° SSE 03:32:56 17° ESE 03:38:48 10° E night (unlit)
01 Mar - 05:26:32 10° SW 05:36:23 58° SE 05:46:13 10° ENE visible
01 Mar - 07:31:12 10° WSW 07:41:25 74° NNW 07:51:28 10° ENE visible
01 Mar - 09:37:20 10° WNW 09:47:27 66° N 09:57:15 10° E visible
01 Mar - 11:42:55 10° WNW 11:52:57 79° SSW 12:02:35 10° SE visible
01 Mar - 13:48:56 10° WNW 13:56:51 29° SW 14:04:33 10° S daylight
02 Mar - 03:04:45 10° SSE 03:10:03 16° ESE 03:15:21 10° E night (unlit)
02 Mar - 05:03:37 10° SW 05:13:24 55° SE 05:23:10 10° ENE visible
02 Mar - 07:08:08 10° WSW 07:18:22 76° NNW 07:28:27 10° ENE visible
02 Mar - 09:14:16 10° WNW 09:24:24 65° N 09:34:13 10° E visible
02 Mar - 11:19:53 10° WNW 11:29:58 82° SSW 11:39:39 10° SE visible
02 Mar - 13:25:47 10° WNW 13:33:57 31° SW 13:41:55 10° S daylight
03 Mar - 02:42:33 10° SSE 02:47:11 14° ESE 02:51:48 10° E night (unlit)
03 Mar - 04:40:46 10° SSW 04:50:26 52° SE 05:00:08 10° ENE visible
03 Mar - 06:45:04 10° WSW 06:55:19 78° NNW 07:05:27 10° ENE visible
03 Mar - 08:51:12 10° WNW 09:01:19 65° N 09:11:11 10° E visible
03 Mar - 10:56:50 10° WNW 11:06:58 85° SSW 11:16:42 10° ESE visible
03 Mar - 13:02:39 10° WNW 13:11:04 33° SW 13:19:14 10° S daylight
04 Mar - 02:20:33 10° SE 02:24:18 13° ESE 02:28:05 10° E night (unlit)
04 Mar - 04:17:54 10° SSW 04:27:28 49° SE 04:37:05 10° ENE night (unlit)
04 Mar - 06:22:01 10° WSW 06:32:16 80° NNW 06:42:26 10° ENE visible
04 Mar - 08:28:06 10° WNW 08:38:15 65° N 08:48:08 10° E visible
04 Mar - 10:33:48 10° WNW 10:43:58 88° SSW 10:53:44 10° ESE visible
04 Mar - 12:39:31 10° WNW 12:48:10 35° SW 12:56:33 10° SSE daylight
